This demonstration page uses our WeatherBlox Daily Observations layout. Learn more.

Hourly Observations for April 16, 2017

Temp ( °F °C ) Dew Point ( °F °C ) Humidity (%) Winds ( mph kmh ) Pressure ( in mb ) Visibility ( mi km ) Precip ( " mm )
12:15 am 00:15 Clear 55 12.7 46 8 73 73 NE 17 28 29.97 1015 10 16.0934 0 0
12:35 am 00:35 Clear 55 12.5 46 7.8 73 73 NNE 15 24 30 1016 10 16.0934 0 0
12:55 am 00:55 Clear 53 11.7 46 7.6 76 76 NE 9 15 30.03 1017 10 16.0934 0 0
1:15 am 01:15 Clear 53 11.7 45 7.2 74 74 NE 14 22 30.03 1017 10 16.0934 0 0
1:35 am 01:35 Clear 53 11.5 46 7.5 77 77 NE 12 19 30.03 1017 10 16.0934 0 0
1:55 am 01:55 Clear 53 11.5 46 7.5 77 77 NE 10 17 30.06 1018 10 16.0934 0 0
2:15 am 02:15 Clear 52 11 46 7.5 79 79 ENE 14 22 30.03 1017 10 16.0934 0 0
2:35 am 02:35 Clear 51 10.8 46 7.8 82 82 NE 9 15 30.06 1018 10 16.0934 0 0
2:55 am 02:55 Clear 51 10.7 46 7.6 81 81 NE 10 17 30.06 1018 10 16.0934 0 0
3:15 am 03:15 Clear 51 10.5 46 7.5 82 82 NE 15 24 30.03 1017 10 16.0934 0 0
3:35 am 03:35 Clear 50 10.2 45 7.3 82 82 NE 13 20 30.03 1017 10 16.0934 0 0
3:55 am 03:55 Partly Cloudy 50 10 46 7.6 85 85 ENE 12 19 30.06 1018 10 16.0934 0 0
4:15 am 04:15 Cloudy 50 10 46 7.7 86 86 NE 9 15 30.06 1018 10 16.0934 0 0
4:35 am 04:35 Cloudy 51 10.4 45 7.4 82 82 NNE 14 22 30.06 1018 10 16.0934 0 0
4:55 am 04:55 Partly Cloudy 50 10.1 45 7.1 82 82 NE 12 19 30.06 1018 10 16.0934 0 0
5:15 am 05:15 Partly Cloudy 49 9.7 45 7.2 85 85 NNE 7 11 30.09 1019 10 16.0934 0 0
5:35 am 05:35 Mostly Cloudy 50 10.1 45 7.3 83 83 NE 5 7 30.09 1019 10 16.0934 0 0
5:55 am 05:55 Cloudy 50 10.2 45 7.2 82 82 NE 8 13 30.06 1018 10 16.0934 0 0
6:15 am 06:15 Partly Cloudy 50 9.8 44 6.9 82 82 N 5 7 30.12 1020 10 16.0934 0 0
6:35 am 06:35 Mostly Cloudy 49 9.3 45 7.1 86 86 NE 5 7 30.12 1020 10 16.0934 0 0
6:55 am 06:55 Cloudy 50 9.8 45 7.1 83 83 ENE 9 15 30.06 1018 10 16.0934 0 0
7:15 am 07:15 Cloudy 50 10.1 44 6.6 79 79 NNE 8 13 30.09 1019 10 16.0934 0 0
7:35 am 07:35 Cloudy 50 10.1 44 6.7 80 80 NNE 7 11 30.09 1019 10 16.0934 0 0
7:55 am 07:55 Cloudy 51 10.3 44 6.6 78 78 E 5 7 30.15 1021 10 16.0934 0 0
8:15 am 08:15 Partly Cloudy 52 11.1 44 6.6 74 74 ENE 8 13 30.12 1020 10 16.0934 0 0
8:35 am 08:35 Partly Cloudy 53 11.6 43 6.3 70 70 ENE 8 13 30.12 1020 10 16.0934 0 0
8:55 am 08:55 Partly Cloudy 52 11.3 43 6.2 71 71 ENE 13 20 30.12 1020 10 16.0934 0 0
9:15 am 09:15 Partly Cloudy 53 11.8 42 5.5 66 66 ENE 14 22 30.12 1020 10 16.0934 0 0
9:35 am 09:35 Partly Cloudy 54 12.1 42 5.5 64 64 NE 12 19 30.12 1020 10 16.0934 0 0
9:55 am 09:55 Partly Cloudy 53 11.8 40 4.7 62 62 ENE 14 22 30.12 1020 10 16.0934 0 0
10:15 am 10:15 Partly Cloudy 54 12.4 39 3.9 56 56 ENE 13 20 30.12 1020 10 16.0934 0 0
10:35 am 10:35 Mostly Cloudy 56 13.3 39 3.7 52 52 ENE 14 22 30.12 1020 10 16.0934 0 0
10:55 am 10:55 Partly Cloudy 58 14.5 38 3.4 48 48 E 10 17 30.09 1019 10 16.0934 0 0
11:15 am 11:15 Sunny 59 14.9 37 2.5 43 43 E 8 13 30.09 1019 10 16.0934 0 0
11:35 am 11:35 Sunny 59 15.2 36 2.4 42 42 E 12 19 30.09 1019 10 16.0934 0 0
11:55 am 11:55 Sunny 60 15.8 34 1 37 37 ESE 10 17 30.09 1019 10 16.0934 0 0
12:15 pm 12:15 Sunny 62 16.8 33 0.7 34 34 ESE 12 19 30.09 1019 10 16.0934 0 0
12:35 pm 12:35 Sunny 62 16.5 34 1 35 35 E 14 22 30.09 1019 10 16.0934 0 0
12:55 pm 12:55 Mostly Cloudy 62 16.8 34 1.2 35 35 ESE 12 19 30.09 1019 10 16.0934 0 0
1:15 pm 13:15 Mostly Cloudy 63 17.2 37 2.9 39 39 ESE 12 19 30.06 1018 10 16.0934 0 0
1:35 pm 13:35 Partly Cloudy 64 17.6 39 3.9 40 40 E 14 22 30.06 1018 10 16.0934 0 0
1:55 pm 13:55 Sunny 65 18.1 37 2.8 36 36 E 12 19 30.06 1018 10 16.0934 0 0
2:15 pm 14:15 Sunny 65 18.4 37 2.6 35 35 E 9 15 30.06 1018 10 16.0934 0 0
2:35 pm 14:35 Sunny 66 18.8 37 2.5 34 34 ESE 13 20 30.06 1018 10 16.0934 0 0
2:55 pm 14:55 Sunny 65 18.5 36 2.2 34 34 ESE 9 15 30.06 1018 10 16.0934 0 0
3:15 pm 15:15 Sunny 66 19 37 2.9 34 34 SE 7 11 30.06 1018 10 16.0934 0 0
3:35 pm 15:35 Sunny 66 19.1 38 3.2 35 35 SE 9 15 30.06 1018 10 16.0934 0 0
3:55 pm 15:55 Sunny 66 19.1 38 3.6 36 36 E 13 20 30.03 1017 10 16.0934 0 0
4:15 pm 16:15 Sunny 67 19.6 36 2.2 32 32 SE 10 17 30.03 1017 10 16.0934 0 0
4:35 pm 16:35 Sunny 67 19.3 34 1 30 30 SE 13 20 30.03 1017 10 16.0934 0 0
4:55 pm 16:55 Sunny 67 19.5 36 2.2 32 32 SE 9 15 30.03 1017 10 16.0934 0 0
5:15 pm 17:15 Sunny 66 19 37 2.5 33 33 SE 12 19 30.03 1017 10 16.0934 0 0
5:35 pm 17:35 Sunny 66 19 37 2.6 34 34 SE 8 13 30.03 1017 10 16.0934 0 0
5:55 pm 17:55 Sunny 66 18.7 38 3.1 36 36 SSE 15 24 30.03 1017 10 16.0934 0 0
6:15 pm 18:15 Sunny 65 18.5 38 3.2 36 36 S 12 19 30.03 1017 10 16.0934 0 0
6:35 pm 18:35 Sunny 65 18.1 40 4.5 41 41 SSW 13 20 30.03 1017 10 16.0934 0 0
6:55 pm 18:55 Sunny 64 17.8 42 5.4 44 44 S 14 22 30.03 1017 10 16.0934 0 0
7:15 pm 19:15 Sunny 63 17.4 41 5 44 44 S 12 19 30.03 1017 10 16.0934 0 0
7:35 pm 19:35 Sunny 62 16.5 40 4.2 44 44 S 10 17 30.06 1018 10 16.0934 0 0
7:55 pm 19:55 Sunny 60 15.7 39 4 46 46 S 7 11 30.06 1018 10 16.0934 0 0
8:15 pm 20:15 Sunny 59 14.9 39 4 48 48 S 6 9 30.06 1018 10 16.0934 0 0
8:35 pm 20:35 Clear 57 13.9 40 4.3 53 53 SSE 7 11 30.06 1018 10 16.0934 0 0
8:55 pm 20:55 Clear 56 13.5 40 4.5 55 55 SSE 8 13 30.06 1018 10 16.0934 0 0
9:15 pm 21:15 Clear 54 12 40 4.6 61 61 SSE 8 13 30.09 1019 10 16.0934 0 0
9:35 pm 21:35 Clear 53 11.8 42 5.3 65 65 SSE 9 15 30.09 1019 10 16.0934 0 0
9:55 pm 21:55 Clear 53 11.8 42 5.5 66 66 S 9 15 30.09 1019 10 16.0934 0 0
10:15 pm 22:15 Clear 52 11.1 42 5.5 69 69 S 7 11 30.12 1020 10 16.0934 0 0
10:35 pm 22:35 Clear 52 10.9 42 5.5 70 70 S 9 15 30.12 1020 10 16.0934 0 0
10:55 pm 22:55 Clear 50 10.2 41 5.2 71 71 S 6 9 30.15 1021 10 16.0934 0 0
11:15 pm 23:15 Clear 50 10 42 5.5 74 74 S 6 9 30.15 1021 10 16.0934 0 0
11:35 pm 23:35 Clear 49 9.7 42 5.3 74 74 S 8 13 30.15 1021 10 16.0934 0 0
11:55 pm 23:55 Clear 49 9.3 42 5.3 76 76 SW 5 7 30.15 1021 10 16.0934 0 0

Powered by AerisWeather